QPF
0.00 0.00 0.00 0.00 0.00 0.00 0.00 0.00 0.00 0.00 0.00 0.00 0.00 0.00 0.00 0.00 0.00 0.00 0.00 0.00 0.00 0.00 0.00 0.00 0.00 0.00 0.00 0.00 0.00 0.00 0.00 0.00 0.00 0.00 0.00 0.00 0.00 0.00 0.00 0.00 0.00 0.00 0.00
0.00 0.00 0.00 0.00 0.00 0.00 0.00 0.00 0.00 0.00 0.00 0.00 0.00 0.00 0.00 0.00 0.00 0.00 0.00 0.00 0.00 0.00 0.00 0.00 0.00 0.00 0.01 0.01 0.00 0.00 0.00 0.00 0.00 0.00 0.00 0.00 0.00 0.00 0.01 0.00 0.00 0.00 0.00
0.00 0.00 0.00 0.00 0.00 0.00 0.00 0.00 0.00 0.00 0.00 0.00 0.00 0.00 0.00 0.00 0.00 0.00 0.00 0.00 0.00 0.00 0.00 0.00 0.00 0.00 0.01 0.02 0.02 0.02 0.01 0.02 0.04 0.02 0.01 0.00 0.00 0.00 0.00 0.00 0.00 0.00 0.00
0.00 0.00 0.00 0.00 0.00 0.00 0.00 0.00 0.00 0.00 0.00 0.00 0.00 0.00 0.00 0.00 0.00 0.00 0.00 0.00 0.00 0.00 0.00 0.00 0.00 0.01 0.02 0.02 0.02 0.03 0.05 0.08 0.13 0.15 0.07 0.02 0.00 0.00 0.00 0.00 0.00 0.00 0.00
0.00 0.00 0.00 0.00 0.00 0.00 0.00 0.00 0.00 0.00 0.00 0.00 0.00 0.00 0.00 0.00 0.00 0.00 0.00 0.00 0.00 0.00 0.00 0.00 0.00 0.03 0.05 0.09 0.07 0.04 0.03 0.04 0.02 0.02 0.02 0.01 0.00 0.00 0.01 0.00 0.01 0.00 0.00
0.00 0.00 0.00 0.00 0.00 0.00 0.00 0.00 0.00 0.00 0.00 0.00 0.00 0.00 0.01 0.00 0.00 0.00 0.00 0.00 0.00 0.00 0.00 0.00 0.01 0.04 0.08 0.09 0.04 0.01 0.01 0.02 0.01 0.02 0.02 0.00 0.01 0.02 0.01 0.01 0.00 0.00 0.00
0.00 0.00 0.00 0.00 0.00 0.00 0.00 0.00 0.00 0.00 0.00 0.00 0.03 0.01 0.00 0.00 0.00 0.00 0.00 0.00 0.00 0.00 0.01 0.02 0.00 0.04 0.08 0.01 0.00 0.00 0.00 0.01 0.01 0.01 0.01 0.01 0.02 0.04 0.03 0.01 0.00 0.00 0.00
0.00 0.00 0.00 0.00 0.00 0.00 0.00 0.00 0.00 0.00 0.00 0.00 0.01 0.01 0.00 0.00 0.00 0.00 0.00 0.00 0.00 0.00 0.02 0.02 0.01 0.01 0.03 0.01 0.01 0.00 0.00 0.02 0.05 0.04 0.02 0.01 0.02 0.02 0.00 0.00 0.00 0.00 0.00
0.00 0.00 0.00 0.00 0.00 0.00 0.00 0.00 0.00 0.00 0.00 0.00 0.01 0.01 0.00 0.00 0.01 0.01 0.00 0.00 0.00 0.00 0.01 0.03 0.04 0.01 0.08 0.07 0.00 0.00 0.01 0.01 0.01 0.05 0.03 0.01 0.00 0.00 0.00 0.00 0.00 0.00 0.00
0.00 0.00 0.00 0.00 0.00 0.00 0.00 0.00 0.00 0.01 0.01 0.00 0.00 0.02 0.02 0.01 0.02 0.02 0.00 0.00 0.00 0.01 0.04 0.04 0.19 0.02 0.03 0.01 0.00 0.00 0.03 0.03 0.02 0.01 0.01 0.00 0.00 0.00 0.00 0.00 0.00 0.00 0.00
0.00 0.00 0.00 0.00 0.00 0.00 0.00 0.00 0.00 0.00 0.00 0.00 0.00 0.00 0.02 0.03 0.04 0.00 0.00 0.00 0.00 0.01 0.02 0.03 0.02 0.03 0.01 0.01 0.00 0.00 0.01 0.01 0.00 0.00 0.00 0.00 0.00 0.00 0.00 0.00 0.00 0.00 0.00
0.00 0.00 0.00 0.00 0.00 0.00 0.00 0.00 0.00 0.00 0.00 0.00 0.00 0.02 0.06 0.08 0.03 0.00 0.00 0.00 0.00 0.00 0.01 0.03 0.05 0.03 0.09 0.03 0.00 0.00 0.00 0.00 0.00 0.00 0.00 0.00 0.00 0.00 0.00 0.00 0.00 0.00 0.00
0.00 0.00 0.00 0.00 0.00 0.01 0.01 0.00 0.00 0.00 0.00 0.01 0.02 0.04 0.04 0.04 0.03 0.01 0.01 0.02 0.01 0.01 0.01 0.04 0.04 0.02 0.01 0.00 0.00 0.00 0.00 0.00 0.00 0.00 0.00 0.00 0.00 0.00 0.00 0.00 0.00 0.00 0.00
0.00 0.00 0.00 0.00 0.01 0.01 0.01 0.00 0.00 0.00 0.00 0.01 0.04 0.06 0.06 0.06 0.02 0.01 0.01 0.02 0.01 0.00 0.00 0.01 0.00 0.00 0.00 0.00 0.00 0.00 0.00 0.00 0.00 0.00 0.00 0.00 0.00 0.00 0.00 0.00 0.00 0.00 0.00
0.00 0.00 0.00 0.00 0.00 0.01 0.01 0.00 0.00 0.01 0.02 0.03 0.04 0.04 0.01 0.01 0.01 0.02 0.01 0.00 0.00 0.00 0.00 0.00 0.00 0.00 0.00 0.00 0.00 0.00 0.00 0.00 0.00 0.00 0.00 0.00 0.00 0.00 0.00 0.00 0.00 0.00 0.00
0.00 0.01 0.01 0.01 0.01 0.01 0.00 0.00 0.00 0.01 0.00 0.01 0.03 0.01 0.03 0.02 0.01 0.01 0.00 0.00 0.00 0.00 0.00 0.00 0.00 0.00 0.00 0.00 0.00 0.00 0.00 0.00 0.00 0.00 0.00 0.00 0.00 0.00 0.00 0.00 0.00 0.00 0.00
0.00 0.01 0.01 0.01 0.01 0.00 0.00 0.00 0.00 0.00 0.00 0.00 0.00 0.00 0.00 0.00 0.00 0.00 0.00 0.00 0.00 0.00 0.00 0.00 0.00 0.00 0.00 0.00 0.00 0.00 0.00 0.00 0.00 0.00 0.00 0.00 0.00 0.00 0.00 0.00 0.00 0.00 0.00
0.00 0.00 0.00 0.01 0.01 0.01 0.02 0.00 0.00 0.00 0.00 0.00 0.00 0.00 0.00 0.00 0.00 0.00 0.00 0.00 0.00 0.00 0.00 0.00 0.00 0.00 0.00 0.00 0.00 0.00 0.00 0.00 0.00 0.00 0.00 0.00 0.00 0.00 0.00 0.00 0.00 0.00 0.00
0.00 0.00 0.00 0.00 0.02 0.02 0.00 0.00 0.00 0.00 0.01 0.00 0.00 0.00 0.00 0.00 0.00 0.00 0.00 0.00 0.00 0.00 0.00 0.00 0.00 0.00 0.00 0.00 0.00 0.00 0.00 0.00 0.00 0.00 0.00 0.00 0.00 0.00 0.00 0.00 0.00 0.00 0.00
0.00 0.00 0.00 0.00 0.00 0.00 0.00 0.00 0.00 0.00 0.01 0.00 0.00 0.00 0.00 0.00 0.00 0.00 0.00 0.00 0.00 0.00 0.00 0.00 0.00 0.00 0.00 0.00 0.00 0.00 0.00 0.00 0.00 0.00 0.00 0.00 0.00 0.00 0.00 0.00 0.00 0.00 0.00
0.00 0.00 0.00 0.00 0.00 0.00 0.00 0.00 0.00 0.00 0.00 0.00 0.00 0.00 0.00 0.00 0.00 0.00 0.00 0.00 0.00 0.00 0.00 0.00 0.00 0.00 0.00 0.00 0.00 0.00 0.00 0.00 0.00 0.00 0.00 0.00 0.00 0.00 0.00 0.00 0.00 0.00 0.00
0.00 0.00 0.00 0.00 0.00 0.00 0.00 0.00 0.00 0.00 0.00 0.00 0.00 0.00 0.00 0.00 0.00 0.00 0.00 0.00 0.00 0.00 0.00 0.00 0.00 0.00 0.00 0.00 0.00 0.00 0.00 0.00 0.00 0.00 0.00 0.00 0.00 0.00 0.00 0.00 0.00 0.00 0.00
0.01 0.00 0.01 0.00 0.00 0.00 0.00 0.00 0.00 0.00 0.00 0.00 0.00 0.00 0.00 0.00 0.00 0.00 0.00 0.00 0.00 0.00 0.00 0.00 0.00 0.00 0.00 0.00 0.00 0.00 0.00 0.00 0.00 0.00 0.00 0.00 0.00 0.00 0.00 0.00 0.00 0.00 0.00
0.02 0.02 0.02 0.00 0.01 0.01 0.00 0.00 0.00 0.00 0.00 0.00 0.00 0.00 0.00 0.00 0.00 0.00 0.00 0.00 0.00 0.00 0.00 0.00 0.00 0.00 0.00 0.00 0.00 0.00 0.00 0.00 0.00 0.00 0.00 0.00 0.00 0.00 0.00 0.00 0.00 0.00 0.00
0.04 0.02 0.01 0.01 0.02 0.01 0.00 0.00 0.00 0.00 0.00 0.00 0.00 0.00 0.00 0.00 0.00 0.00 0.00 0.00 0.00 0.00 0.00 0.00 0.00 0.00 0.00 0.00 0.00 0.00 0.00 0.00 0.00 0.00 0.00 0.00 0.00 0.00 0.00 0.00 0.00 0.00 0.00
0.03 0.03 0.01 0.01 0.00 0.00 0.00 0.00 0.00 0.00 0.00 0.00 0.00 0.00 0.00 0.00 0.00 0.00 0.00 0.00 0.00 0.00 0.00 0.00 0.00 0.00 0.00 0.00 0.00 0.00 0.00 0.00 0.00 0.00 0.00 0.00 0.00 0.00 0.00 0.00 0.00 0.00 0.00
MSLP
1006.04 1006.75 1007.37 1007.83 1008.21 1008.73 1008.98 1009.39 1009.85 1010.43 1010.77 1011.45 1012.26 1012.95 1013.68 1014.10 1014.58 1015.07 1015.44 1015.54 1015.65 1016.07 1016.33 1016.65 1016.79 1016.85 1016.82 1016.85 1016.97 1017.08 1017.19 1017.26 1017.56 1017.47 1017.34 1017.28 1017.30 1017.32 1017.05 1016.82 1016.78 1016.73 1016.66
1005.08 1005.82 1006.32 1006.67 1007.42 1007.92 1008.33 1008.58 1009.20 1009.75 1010.45 1011.07 1011.79 1012.48 1013.05 1013.69 1014.11 1014.46 1014.85 1014.80 1015.03 1015.48 1015.77 1016.05 1016.36 1016.52 1016.66 1016.86 1016.85 1016.96 1016.94 1016.95 1017.28 1017.45 1017.27 1017.10 1016.94 1016.76 1016.69 1016.49 1016.14 1015.83 1015.90
1004.04 1004.66 1005.27 1005.91 1006.54 1006.88 1007.41 1008.08 1008.59 1009.16 1009.70 1010.38 1011.04 1011.75 1012.39 1012.92 1013.27 1013.61 1014.07 1014.20 1014.20 1014.58 1015.00 1015.35 1015.80 1016.15 1016.40 1016.69 1017.02 1017.14 1017.15 1017.13 1017.43 1017.76 1017.55 1016.80 1016.33 1016.27 1016.10 1015.93 1015.72 1015.47 1015.29
1002.86 1003.47 1004.15 1004.90 1005.29 1005.82 1006.50 1007.13 1007.69 1008.30 1009.04 1009.71 1010.50 1011.17 1011.72 1012.16 1012.71 1013.20 1013.68 1013.97 1013.89 1014.05 1014.30 1014.83 1015.10 1015.56 1015.92 1016.32 1016.57 1016.81 1016.95 1017.13 1017.45 1017.87 1017.82 1017.47 1016.30 1015.76 1015.70 1015.91 1015.79 1015.35 1015.21
1001.48 1002.26 1003.08 1003.69 1004.25 1005.05 1005.72 1006.21 1007.04 1007.68 1008.56 1009.37 1010.28 1010.98 1011.69 1012.21 1012.47 1012.90 1013.38 1013.68 1013.84 1013.87 1013.90 1014.03 1014.59 1014.92 1015.36 1015.57 1015.93 1016.43 1016.68 1016.93 1017.12 1017.17 1017.03 1016.96 1016.28 1015.91 1016.01 1015.88 1015.74 1015.44 1015.02
1000.21 1001.13 1001.84 1002.74 1003.52 1004.28 1005.04 1005.77 1006.75 1007.46 1008.40 1009.14 1009.82 1010.53 1011.34 1011.35 1011.87 1012.39 1012.76 1013.14 1013.34 1013.53 1013.67 1013.72 1014.31 1014.65 1015.00 1015.61 1015.71 1015.85 1015.96 1016.06 1016.16 1016.31 1016.29 1016.25 1016.12 1015.85 1015.79 1015.83 1015.65 1015.53 1014.85
999.19 1000.08 1000.86 1001.74 1002.61 1003.54 1004.41 1005.29 1006.07 1006.96 1007.97 1008.73 1009.35 1009.70 1010.63 1011.80 1011.72 1011.72 1012.33 1012.78 1013.08 1012.99 1013.23 1013.47 1014.10 1014.28 1014.59 1014.97 1015.02 1015.33 1015.32 1015.16 1015.29 1015.59 1015.79 1015.56 1015.56 1015.39 1015.55 1015.63 1015.54 1015.42 1015.08
998.33 999.32 1000.19 1000.94 1001.85 1003.03 1004.03 1004.89 1005.89 1006.87 1007.66 1008.35 1009.13 1009.93 1010.38 1010.76 1011.05 1011.72 1012.11 1012.45 1012.67 1012.76 1012.98 1013.17 1013.68 1013.87 1014.18 1014.31 1014.64 1014.84 1014.83 1014.72 1014.88 1015.09 1015.03 1014.80 1014.73 1014.78 1015.02 1015.11 1015.04 1014.92 1014.48
997.46 998.36 999.29 1000.31 1001.60 1002.77 1003.76 1004.89 1005.77 1006.69 1007.43 1008.02 1008.61 1009.25 1009.97 1010.51 1010.86 1011.76 1012.12 1012.49 1012.68 1012.69 1012.82 1013.02 1013.23 1013.46 1013.47 1013.69 1014.46 1014.73 1014.63 1014.13 1013.68 1013.81 1013.87 1013.94 1014.01 1014.31 1014.44 1014.68 1014.64 1014.44 1013.85
996.51 997.59 998.76 1000.01 1001.40 1002.79 1003.91 1004.90 1005.75 1006.46 1007.07 1007.46 1007.95 1008.59 1009.40 1009.98 1010.84 1011.12 1011.79 1012.06 1012.41 1012.64 1012.62 1012.54 1012.69 1013.01 1013.44 1013.88 1014.28 1014.33 1014.19 1013.86 1013.61 1013.53 1013.86 1013.97 1014.01 1013.75 1013.63 1013.86 1013.62 1013.71 1013.49
996.58 997.95 999.17 1000.53 1001.82 1003.01 1004.10 1004.91 1005.75 1006.36 1006.80 1007.42 1007.96 1008.71 1009.38 1009.91 1010.52 1010.84 1011.34 1011.70 1011.72 1012.00 1012.01 1012.07 1012.47 1012.67 1013.04 1013.63 1014.08 1014.15 1014.33 1014.30 1013.90 1013.70 1013.47 1013.38 1013.16 1012.90 1012.73 1012.52 1012.97 1013.43 1013.14
997.29 998.43 999.61 1001.07 1002.19 1003.39 1004.82 1005.66 1005.63 1006.39 1006.90 1007.49 1007.99 1008.40 1008.83 1009.54 1010.00 1010.64 1011.02 1011.32 1011.42 1011.60 1011.69 1011.66 1012.31 1012.77 1013.31 1013.74 1014.14 1014.28 1014.31 1014.20 1013.93 1013.64 1013.32 1013.04 1012.82 1012.49 1012.46 1012.59 1012.42 1012.23 1012.12
997.82 998.97 1000.22 1001.48 1002.59 1003.56 1004.15 1005.49 1006.15 1006.41 1006.77 1007.22 1007.69 1008.29 1008.64 1008.85 1009.68 1010.21 1010.68 1011.09 1011.64 1011.99 1011.75 1012.04 1012.53 1012.98 1013.42 1013.76 1013.83 1013.87 1013.99 1013.93 1013.79 1013.41 1013.06 1012.88 1012.78 1012.48 1012.38 1012.34 1012.04 1011.91 1011.72
998.38 999.68 1000.76 1001.75 1002.79 1003.69 1004.72 1005.73 1006.02 1006.30 1006.74 1007.11 1007.40 1008.20 1008.36 1008.78 1009.25 1010.10 1010.74 1011.12 1011.60 1011.82 1011.98 1012.23 1012.50 1012.65 1012.84 1013.15 1013.26 1013.56 1013.59 1013.44 1013.23 1012.99 1012.95 1012.76 1012.51 1012.53 1012.39 1012.18 1012.21 1012.03 1011.85
999.06 1000.22 1001.32 1002.34 1003.16 1004.14 1005.29 1006.39 1006.53 1007.03 1007.43 1007.25 1007.67 1007.91 1008.12 1008.51 1008.67 1009.12 1009.72 1010.42 1010.60 1010.83 1011.27 1011.70 1012.22 1012.24 1012.18 1012.34 1012.55 1012.64 1012.78 1012.72 1012.78 1012.50 1012.48 1012.68 1012.74 1012.67 1012.47 1012.16 1012.05 1011.94 1011.64
999.59 1000.67 1001.63 1002.58 1003.39 1004.52 1005.45 1006.82 1007.78 1007.88 1007.89 1007.81 1008.15 1007.65 1008.80 1008.56 1008.40 1009.03 1009.46 1010.03 1010.29 1010.51 1010.84 1010.95 1011.24 1011.20 1011.18 1011.32 1011.84 1011.99 1012.15 1012.25 1012.18 1012.29 1012.53 1012.60 1012.69 1012.59 1012.44 1012.17 1011.86 1011.55 1011.22
999.85 1000.68 1001.62 1002.35 1003.27 1003.96 1004.89 1005.75 1007.13 1008.59 1008.26 1008.11 1008.21 1008.43 1008.40 1009.23 1009.32 1009.67 1009.79 1010.27 1010.49 1010.63 1010.73 1010.72 1010.65 1010.50 1010.68 1011.00 1011.27 1011.45 1011.66 1011.64 1011.99 1012.16 1012.36 1012.40 1012.50 1012.38 1012.20 1011.91 1011.61 1011.26 1010.85
1000.20 1000.59 1001.19 1001.89 1002.44 1003.38 1004.03 1004.64 1005.22 1006.55 1007.49 1008.37 1009.14 1009.31 1009.58 1009.76 1010.15 1010.08 1010.08 1010.35 1010.79 1010.69 1010.51 1010.32 1010.16 1010.11 1010.46 1010.76 1011.14 1011.40 1011.61 1011.84 1012.03 1012.30 1012.46 1012.50 1012.33 1012.09 1011.94 1011.69 1011.36 1011.00 1010.54
1000.00 1000.62 1000.79 1000.62 1001.17 1002.64 1003.36 1003.87 1003.97 1004.92 1005.93 1007.47 1009.04 1009.44 1009.80 1009.96 1010.17 1010.29 1010.39 1010.20 1009.99 1009.82 1009.79 1009.66 1009.61 1009.97 1010.37 1010.65 1010.98 1011.32 1011.64 1012.04 1012.31 1012.52 1012.53 1012.34 1012.00 1011.97 1011.74 1011.47 1011.07 1010.58 1010.04
999.28 1000.15 1000.33 1000.62 1000.99 1001.99 1002.52 1002.65 1003.16 1004.20 1005.64 1006.66 1007.44 1008.21 1008.89 1009.28 1009.76 1010.03 1010.03 1009.92 1009.68 1009.34 1009.10 1009.14 1009.40 1009.90 1010.43 1010.87 1011.20 1011.49 1011.73 1011.90 1011.96 1011.98 1012.00 1011.90 1011.89 1011.78 1011.61 1011.25 1010.79 1010.31 1009.67
999.54 1000.38 1000.55 1000.42 1001.09 1001.65 1002.20 1002.61 1002.89 1003.30 1003.97 1005.17 1006.25 1007.18 1007.61 1008.09 1008.49 1008.74 1008.83 1009.10 1009.06 1009.15 1009.08 1009.14 1009.55 1010.07 1010.38 1010.83 1011.12 1011.40 1011.66 1011.68 1011.56 1011.52 1011.64 1011.81 1011.78 1011.69 1011.36 1010.97 1010.58 1009.94 1009.33
999.82 1000.44 1000.60 1000.76 1001.35 1001.96 1002.38 1002.60 1002.84 1003.17 1003.92 1004.98 1005.77 1006.77 1007.46 1007.73 1007.52 1007.80 1008.18 1008.43 1008.60 1008.97 1009.12 1009.37 1009.65 1009.94 1010.13 1010.34 1010.85 1011.17 1011.33 1011.43 1011.27 1011.36 1011.63 1011.82 1011.73 1011.44 1011.08 1010.95 1010.36 1009.77 1009.23
1000.58 1000.05 1001.06 1001.50 1002.04 1002.48 1002.93 1003.37 1003.45 1003.51 1003.98 1004.62 1005.96 1006.97 1007.68 1007.49 1007.42 1007.69 1008.09 1008.32 1008.73 1008.92 1009.12 1009.29 1009.61 1009.95 1010.15 1010.18 1010.71 1011.18 1011.30 1011.22 1011.21 1011.48 1011.90 1011.95 1011.77 1011.39 1011.15 1010.76 1010.23 1009.68 1009.29
1001.07 1000.99 1001.78 1001.98 1002.47 1002.82 1003.22 1003.42 1003.39 1003.67 1004.00 1004.34 1005.37 1006.14 1006.59 1006.97 1007.31 1007.46 1007.85 1008.34 1008.68 1008.91 1008.99 1009.11 1009.48 1009.82 1010.11 1010.39 1010.62 1010.87 1011.13 1011.36 1011.55 1011.96 1012.41 1012.38 1011.98 1011.45 1011.11 1010.68 1010.09 1009.74 1009.23
1001.77 1002.10 1002.12 1002.30 1002.74 1003.12 1003.11 1003.04 1003.27 1003.34 1003.68 1004.17 1004.68 1005.21 1005.69 1006.27 1006.80 1007.34 1007.66 1008.03 1008.32 1008.54 1008.87 1009.02 1009.19 1009.44 1009.79 1010.30 1010.86 1011.69 1012.21 1012.12 1012.46 1012.70 1012.52 1012.35 1012.08 1011.47 1010.93 1010.56 1010.19 1009.70 1009.10
1002.24 1002.19 1002.70 1002.98 1002.77 1002.93 1003.29 1003.48 1002.98 1003.50 1003.91 1003.96 1004.23 1004.57 1004.93 1005.47 1006.07 1006.85 1007.24 1007.41 1007.82 1008.07 1008.35 1008.70 1008.95 1009.09 1009.45 1009.94 1010.60 1011.70 1012.22 1012.35 1012.54 1012.82 1012.83 1012.54 1011.97 1011.27 1010.84 1010.69 1010.13 1009.72 1009.21
Thickness
5829 5825 5821 5820 5822 5822 5821 5819 5815 5807 5801 5794 5786 5778 5768 5762 5756 5747 5742 5740 5735 5729 5724 5718 5713 5710 5708 5706 5705 5702 5699 5697 5687 5688 5691 5691 5689 5687 5688 5688 5687 5688 5688
5834 5829 5827 5829 5827 5825 5823 5822 5817 5809 5802 5795 5786 5779 5773 5764 5758 5750 5742 5739 5733 5728 5723 5715 5707 5704 5700 5698 5697 5694 5692 5691 5686 5679 5682 5683 5683 5684 5683 5684 5684 5684 5683
5841 5838 5835 5832 5830 5828 5825 5822 5818 5812 5805 5797 5789 5779 5772 5766 5760 5755 5747 5740 5735 5728 5719 5711 5703 5698 5694 5691 5686 5682 5681 5682 5678 5671 5670 5679 5681 5678 5678 5678 5678 5679 5679
5848 5845 5839 5837 5836 5834 5830 5825 5821 5815 5805 5798 5790 5782 5774 5767 5759 5752 5744 5736 5733 5727 5721 5712 5704 5697 5691 5686 5680 5676 5674 5672 5667 5659 5652 5656 5669 5673 5673 5667 5665 5669 5666
5853 5849 5845 5844 5842 5837 5831 5826 5820 5813 5804 5796 5786 5779 5770 5761 5755 5747 5739 5732 5727 5723 5719 5713 5704 5697 5692 5688 5682 5673 5671 5665 5659 5656 5654 5653 5655 5656 5651 5652 5651 5652 5652
5858 5853 5852 5848 5843 5837 5831 5824 5815 5808 5798 5791 5783 5775 5764 5761 5752 5744 5738 5731 5724 5718 5713 5708 5700 5694 5687 5679 5676 5672 5669 5664 5658 5653 5652 5646 5645 5645 5642 5638 5637 5633 5635
5860 5857 5854 5850 5843 5836 5830 5821 5813 5803 5795 5787 5780 5774 5762 5748 5744 5741 5732 5726 5719 5714 5708 5704 5696 5691 5685 5680 5676 5669 5664 5663 5659 5652 5645 5643 5639 5637 5631 5627 5624 5620 5618
5860 5856 5853 5850 5843 5835 5826 5817 5808 5799 5790 5783 5774 5764 5755 5747 5740 5732 5725 5719 5712 5707 5703 5698 5690 5688 5683 5678 5671 5665 5661 5658 5651 5645 5641 5638 5633 5629 5625 5620 5616 5613 5612
5860 5857 5853 5848 5839 5830 5820 5810 5802 5792 5784 5777 5769 5760 5749 5742 5733 5722 5715 5708 5701 5698 5694 5691 5687 5684 5681 5672 5662 5655 5651 5650 5648 5644 5639 5635 5630 5623 5617 5610 5604 5602 5602
5862 5857 5852 5844 5832 5820 5811 5802 5795 5787 5779 5773 5766 5757 5746 5736 5723 5717 5708 5702 5695 5689 5688 5687 5682 5679 5670 5660 5652 5647 5644 5641 5638 5634 5628 5622 5617 5613 5609 5602 5601 5594 5592
5857 5848 5839 5832 5820 5811 5802 5795 5786 5780 5774 5763 5754 5746 5735 5727 5717 5709 5700 5697 5692 5686 5684 5681 5676 5668 5660 5650 5642 5639 5631 5625 5624 5622 5619 5613 5610 5607 5604 5602 5595 5588 5586
5843 5835 5827 5818 5809 5799 5784 5777 5779 5770 5761 5751 5744 5735 5729 5719 5711 5700 5693 5688 5686 5681 5676 5675 5666 5655 5646 5637 5629 5622 5617 5614 5611 5608 5605 5602 5599 5598 5595 5590 5587 5586 5583
5830 5822 5814 5805 5797 5784 5780 5769 5762 5759 5753 5745 5736 5725 5718 5714 5705 5695 5685 5679 5672 5667 5668 5658 5649 5641 5634 5624 5619 5615 5608 5604 5599 5596 5594 5593 5589 5588 5586 5582 5580 5578 5577
5815 5807 5800 5792 5785 5778 5771 5761 5757 5751 5744 5736 5728 5716 5712 5705 5698 5689 5679 5672 5663 5658 5652 5646 5639 5633 5626 5619 5613 5604 5600 5596 5591 5589 5585 5582 5580 5576 5574 5572 5569 5566 5565
5800 5792 5784 5778 5770 5764 5754 5745 5745 5731 5727 5726 5718 5711 5707 5700 5695 5688 5678 5667 5662 5655 5646 5637 5626 5621 5618 5613 5606 5601 5597 5593 5587 5583 5578 5572 5567 5565 5563 5562 5560 5558 5557
5784 5777 5770 5763 5756 5747 5739 5727 5711 5709 5706 5703 5698 5704 5688 5685 5684 5675 5667 5656 5649 5642 5635 5630 5623 5620 5614 5608 5600 5595 5590 5585 5581 5575 5568 5563 5558 5555 5554 5553 5553 5552 5552
5770 5764 5757 5751 5744 5739 5731 5723 5710 5694 5690 5689 5685 5681 5681 5670 5664 5656 5650 5640 5634 5630 5626 5621 5617 5615 5609 5603 5597 5591 5584 5580 5573 5567 5561 5557 5552 5550 5548 5547 5547 5548 5547
5756 5750 5749 5742 5738 5732 5725 5719 5715 5700 5692 5682 5665 5663 5656 5652 5645 5641 5638 5632 5625 5620 5618 5614 5612 5610 5604 5598 5590 5584 5577 5570 5564 5558 5552 5548 5546 5546 5544 5543 5543 5543 5543
5743 5739 5737 5739 5736 5721 5716 5710 5712 5702 5693 5674 5657 5651 5645 5638 5634 5630 5624 5626 5623 5620 5615 5612 5612 5605 5598 5592 5585 5578 5570 5561 5555 5549 5546 5544 5545 5542 5540 5540 5539 5539 5540
5741 5732 5731 5730 5726 5716 5708 5707 5699 5689 5676 5670 5661 5654 5645 5638 5632 5626 5621 5617 5616 5616 5616 5611 5605 5599 5590 5584 5577 5570 5563 5557 5553 5549 5545 5543 5540 5538 5536 5536 5536 5536 5537
5730 5720 5715 5718 5711 5707 5700 5692 5689 5684 5680 5670 5660 5656 5642 5639 5632 5627 5622 5615 5614 5610 5608 5605 5598 5591 5586 5578 5572 5566 5559 5554 5551 5548 5544 5539 5536 5533 5532 5532 5532 5533 5534
5715 5708 5705 5703 5697 5690 5685 5683 5678 5675 5667 5657 5653 5646 5632 5633 5632 5627 5620 5615 5612 5606 5601 5597 5592 5587 5583 5578 5570 5563 5557 5551 5549 5545 5539 5534 5531 5530 5529 5526 5527 5528 5529
5689 5700 5689 5682 5675 5672 5670 5663 5661 5661 5654 5651 5641 5630 5623 5624 5622 5616 5612 5608 5603 5599 5596 5592 5587 5582 5578 5574 5566 5559 5553 5550 5546 5540 5533 5528 5526 5525 5522 5522 5522 5522 5523
5676 5676 5667 5666 5662 5660 5653 5650 5653 5648 5645 5644 5634 5627 5622 5617 5612 5610 5605 5600 5596 5593 5591 5588 5582 5577 5572 5566 5562 5556 5551 5545 5540 5532 5524 5521 5520 5520 5518 5518 5520 5519 5520
5655 5655 5656 5653 5649 5644 5647 5646 5642 5643 5639 5634 5628 5624 5620 5614 5608 5602 5599 5595 5592 5589 5585 5582 5578 5574 5568 5561 5555 5546 5541 5537 5530 5524 5520 5517 5515 5515 5516 5516 5516 5516 5519
5644 5645 5638 5638 5639 5637 5633 5631 5634 5628 5624 5625 5624 5619 5616 5611 5605 5598 5595 5594 5589 5587 5582 5578 5573 5569 5565 5558 5551 5542 5535 5531 5525 5520 5515 5513 5513 5515 5515 5513 5514 5515 5516